(437323) = 2013 PF74 = 2013 SQ51

Discovered at Catalina on 2006-10-17 by CSS.

Orbit

Orbit type: Phocaea

Note: WebGL enabled browser required.

epoch2023-02-25.0
epoch JD2460000.5
perihelion date2020-08-14.64369
perihelion JD2459076.14369
argument of perihelion (°)323.09686
ascending node (°)45.96817
inclination (°)12.11622
eccentricity0.2368431
perihelion distance (AU)1.7487609
Tisserand w.r.t. Jupiter3.5
ΔV w.r.t. Earth (km/sec)8.9
semimajor axis (AU)2.2914829
mean anomaly (°)262.64451
mean daily motion (°/day)0.28413770
aphelion distance (AU)2.834
period (years)3.47
P-vector [x]0.97789341
P-vector [y]0.20321786
P-vector [z]-0.04926439
Q-vector [x]-0.14474855
Q-vector [y]0.82789916
Q-vector [z]0.54187714
absolute magnitude17.6
phase slope0.15
uncertainty0
referenceMPO 745323
observations used319
oppositions9
arc length (days)6091
first opposition used2006
last opposition used2023
residual rms (arc-secs)0.71
perturbers coarse indicatorM-v
perturbers precise indicator003Ek
first observation date used2006-10-17.0
last observation date used2023-06-21.0
computer nameMPCLINUX
Minimum Orbit Intersection Distances (in AU)
for orbit epoch: 2460000.5, reference: E2023-M85
Mercury1.39302
Venus1.02596
Earth0.76394
Mars0.34509
Jupiter2.64568
Saturn6.68689
Uranus15.6694
Neptune27.8939

Observations

321 total observations over interval: 2006 10 17.22385 – 2023 06 21.461152
These data are available for download (format description).

Date (UT) J2000 RA J2000 Dec Magn Location Ref
2006 10 17.22385 01 00 44.89 -07 41 24.0 18.5 V 703 – Catalina Sky Survey MPS 483749
2006 10 17.23165 01 00 44.35 -07 41 20.1 18.6 V 703 – Catalina Sky Survey MPS 483749
2006 10 17.23946 01 00 43.77 -07 41 16.2 18.6 V 703 – Catalina Sky Survey MPS 483749
2006 10 17.24721 01 00 43.20 -07 41 11.7 18.4 V 703 – Catalina Sky Survey MPS 483749
2006 12 11.21817 00 50 15.39 +04 14 34.5 19.6 V 703 – Catalina Sky Survey MPS 483749
2006 12 11.22483 00 50 15.61 +04 14 38.5 20.6 V 703 – Catalina Sky Survey MPS 483749
2006 12 11.23153 00 50 15.93 +04 14 44.7 20.5 V 703 – Catalina Sky Survey MPS 483749
2006 12 11.23832 00 50 16.26 +04 14 51.1 20.2 V 703 – Catalina Sky Survey MPS 483749
2012 04 27.44169 14 07 56.850 -08 48 12.31 21.1 w F51 – Pan-STARRS 1, Haleakala MPS 483749
2012 04 27.45668 14 07 55.839 -08 48 10.78 21.3 w F51 – Pan-STARRS 1, Haleakala MPS 483749
2012 04 27.47165 14 07 54.820 -08 48 09.08 21.3 w F51 – Pan-STARRS 1, Haleakala MPS 483749
2013 08 12.38225 02 17 12.65 -00 53 07.9 20.3 r I41 – Palomar Mountain--ZTF MPS 476507
2013 08 12.38338 02 17 12.77 -00 53 07.0 20.1 r I41 – Palomar Mountain--ZTF MPS 476507
2013 08 14.37080 02 19 35.39 -00 40 00.8 19.8 r I41 – Palomar Mountain--ZTF MPS 477826
2013 08 14.46008 02 19 41.47 -00 39 25.8 19.8 r I41 – Palomar Mountain--ZTF MPS 477826
2013 08 14.49742 02 19 43.98 -00 39 11.2 20.0 r I41 – Palomar Mountain--ZTF MPS 477826
2013 08 16.39542 02 21 54.44 -00 26 56.7 20.2 r I41 – Palomar Mountain--ZTF MPS 476507
2013 08 16.44968 02 21 57.97 -00 26 36.0 20.2 r I41 – Palomar Mountain--ZTF MPS 476507
2013 08 16.48571 02 22 00.30 -00 26 22.0 20.2 r I41 – Palomar Mountain--ZTF MPS 476507
2013 09 06.41506 02 38 42.75 +01 34 08.5 19.3 V 703 – Catalina Sky Survey MPS 480246
2013 09 06.42345 02 38 42.99 +01 34 11.7 20.0 V 703 – Catalina Sky Survey MPS 480246
2013 09 06.43197 02 38 43.14 +01 34 13.2 19.9 V 703 – Catalina Sky Survey MPS 480246
2013 09 06.44034 02 38 43.39 +01 34 17.1 19.7 V 703 – Catalina Sky Survey MPS 480246
2013 09 28.55359 02 38 01.530 +03 29 26.03 19.1 i F51 – Pan-STARRS 1, Haleakala MPS 480361
2013 09 28.56651 02 38 01.086 +03 29 30.29 19.0 i F51 – Pan-STARRS 1, Haleakala MPS 480361
2013 09 28.60690 02 37 59.686 +03 29 43.36 19.1 r F51 – Pan-STARRS 1, Haleakala MPS 480361
2013 09 28.61856 02 37 59.285 +03 29 47.04 19.1 r F51 – Pan-STARRS 1, Haleakala MPS 480361
2013 10 05.37552 02 33 33.67 +04 07 24.2 18.8 V 703 – Catalina Sky Survey MPS 480361
2013 10 05.38003 02 33 33.48 +04 07 26.5 18.7 V 703 – Catalina Sky Survey MPS 480361
2013 10 05.38449 02 33 33.24 +04 07 27.5 18.7 V 703 – Catalina Sky Survey MPS 480361
2013 10 05.38898 02 33 32.97 +04 07 29.0 18.9 V 703 – Catalina Sky Survey MPS 480361
2013 10 23.20589 02 14 50.07 +06 02 06.3 18.3 r I41 – Palomar Mountain--ZTF MPS 483749
2013 10 23.23550 02 14 47.84 +06 02 19.6 18.4 r I41 – Palomar Mountain--ZTF MPS 483749
2013 10 24.16628 02 13 39.93 +06 09 00.3 18.7 r I41 – Palomar Mountain--ZTF MPS 483749
2013 10 24.20151 02 13 37.26 +06 09 15.7 18.8 r I41 – Palomar Mountain--ZTF MPS 483749
2013 10 25.33454 02 12 13.51 +06 17 30.8 18.0 V G96 – Mt. Lemmon Survey MPS 482468
2013 10 25.34167 02 12 12.96 +06 17 33.9 18.0 V G96 – Mt. Lemmon Survey MPS 482468
2013 10 25.34878 02 12 12.41 +06 17 37.0 18.0 V G96 – Mt. Lemmon Survey MPS 482468
2013 10 25.35591 02 12 11.84 +06 17 40.2 18.0 V G96 – Mt. Lemmon Survey MPS 482468
2013 10 27.28765 02 09 50.04 +06 31 57.5 18.2 r I41 – Palomar Mountain--ZTF MPS 483749
2013 10 27.32138 02 09 47.43 +06 32 12.7 18.0 r I41 – Palomar Mountain--ZTF MPS 483749
2013 10 27.34689 02 09 45.46 +06 32 24.1 18.2 r I41 – Palomar Mountain--ZTF MPS 483749
2013 10 31.14828 02 05 08.97 +07 01 22.9 18.7 r I41 – Palomar Mountain--ZTF MPS 483749
2013 10 31.18852 02 05 05.96 +07 01 41.6 19.0 r I41 – Palomar Mountain--ZTF MPS 483749
2013 10 31.21352 02 05 04.08 +07 01 53.5 18.9 r I41 – Palomar Mountain--ZTF MPS 483749
2013 11 01.13956 02 03 57.95 +07 09 07.2 18.4 r I41 – Palomar Mountain--ZTF MPS 485358
2013 11 01.16486 02 03 56.09 +07 09 19.0 18.5 r I41 – Palomar Mountain--ZTF MPS 485358
2013 11 01.19463 02 03 53.89 +07 09 33.3 18.5 r I41 – Palomar Mountain--ZTF MPS 485358
2013 11 01.20697 02 03 52.95 +07 09 39.6 18.6 V 703 – Catalina Sky Survey MPS 485358
2013 11 01.21714 02 03 52.17 +07 09 44.2 18.8 V 703 – Catalina Sky Survey MPS 485358
2013 11 01.22733 02 03 51.37 +07 09 49.4 18.5 V 703 – Catalina Sky Survey MPS 485358
2013 11 01.23753 02 03 50.63 +07 09 54.6 18.3 V 703 – Catalina Sky Survey MPS 485358
2013 11 07.29630 01 56 58.47 +07 58 47.8 19.0 V 703 – Catalina Sky Survey MPS 485358
2013 11 07.30338 01 56 57.84 +07 58 51.4 19.2 V 703 – Catalina Sky Survey MPS 485358
2013 11 07.31888 01 56 56.91 +07 58 58.6 19.2 V 703 – Catalina Sky Survey MPS 485358
2013 11 07.32598 01 56 56.42 +07 59 02.3 19.7 V 703 – Catalina Sky Survey MPS 485358
2013 11 08.20661 01 56 01.07 +08 06 21.3 18.7 V G96 – Mt. Lemmon Survey MPS 487280
2013 11 08.21511 01 56 00.56 +08 06 25.7 18.3 V G96 – Mt. Lemmon Survey MPS 487280
2013 11 08.22361 01 55 59.95 +08 06 29.8 18.6 V G96 – Mt. Lemmon Survey MPS 487280
2013 11 08.23212 01 55 59.38 +08 06 34.1 18.6 V G96 – Mt. Lemmon Survey MPS 487280
2013 11 12.24279 01 52 02.40 +08 40 32.4 18.7 V 703 – Catalina Sky Survey MPS 487280
2013 11 12.24742 01 52 02.10 +08 40 36.3 19.5 V 703 – Catalina Sky Survey MPS 487280
2013 11 12.25203 01 52 01.80 +08 40 36.5 19.6 V 703 – Catalina Sky Survey MPS 487280
2013 11 12.25662 01 52 01.58 +08 40 40.9 18.9 V 703 – Catalina Sky Survey MPS 487280
2013 11 22.56449 01 44 25.35 +10 12 11.6 20.2 R D29 – Purple Mountain Observatory, XuYi Station MPS 488533
2013 11 22.58438 01 44 24.65 +10 12 23.2 19.8 R D29 – Purple Mountain Observatory, XuYi Station MPS 488533
2013 11 22.60426 01 44 23.96 +10 12 33.7 19.3 R D29 – Purple Mountain Observatory, XuYi Station MPS 488533
2013 11 24.60209 01 43 24.18 +10 30 54.7 19.7 R D29 – Purple Mountain Observatory, XuYi Station MPS 488533
2013 11 24.62297 01 43 23.53 +10 31 05.4 20.0 R D29 – Purple Mountain Observatory, XuYi Station MPS 488533
2013 11 24.64384 01 43 22.88 +10 31 18.3 20.0 R D29 – Purple Mountain Observatory, XuYi Station MPS 488533
2013 11 25.24564 01 43 07.411 +10 36 52.86 19.6 w F51 – Pan-STARRS 1, Haleakala MPS 488533
2013 11 25.27569 01 43 06.533 +10 37 09.67 19.5 w F51 – Pan-STARRS 1, Haleakala MPS 488533
2013 11 25.29070 01 43 06.092 +10 37 18.04 19.5 w F51 – Pan-STARRS 1, Haleakala MPS 488533
2013 11 26.23294 01 42 43.082 +10 46 02.17 19.3 i F51 – Pan-STARRS 1, Haleakala MPS 488533
2013 11 26.24558 01 42 42.745 +10 46 09.26 19.4 i F51 – Pan-STARRS 1, Haleakala MPS 488533
2013 11 26.25358 01 42 42.533 +10 46 13.83 19.5 r F51 – Pan-STARRS 1, Haleakala MPS 488533
2013 11 29.42683 01 41 40.89 +11 15 53.6 21.1 R D29 – Purple Mountain Observatory, XuYi Station MPS 490030
2013 11 29.46262 01 41 40.20 +11 16 15.7 20.2 R D29 – Purple Mountain Observatory, XuYi Station MPS 490030
2013 12 09.52507 01 41 10.07 +12 53 00.4 20.3 R D29 – Purple Mountain Observatory, XuYi Station MPS 491030
2013 12 09.54595 01 41 10.21 +12 53 13.3 20.7 R D29 – Purple Mountain Observatory, XuYi Station MPS 491030
2013 12 09.56682 01 41 10.34 +12 53 24.5 21.3 R D29 – Purple Mountain Observatory, XuYi Station MPS 491030
2015 01 28.51832 12 37 58.462 +10 54 27.73 21.8 w F51 – Pan-STARRS 1, Haleakala MPS 567645
2015 01 28.54169 12 37 58.360 +10 54 32.73 21.9 w F51 – Pan-STARRS 1, Haleakala MPS 567645
2015 01 28.55339 12 37 58.305 +10 54 35.33 21.9 w F51 – Pan-STARRS 1, Haleakala MPS 567645
2015 05 10.89131 11 28 33.65 +14 21 48.5 21.4 R 950 – La Palma MPS 606420
2015 05 10.89289 11 28 33.62 +14 21 47.7 20.8 R 950 – La Palma MPS 606420
2015 05 10.89447 11 28 33.63 +14 21 47.1 21.5 R 950 – La Palma MPS 606420
2015 05 10.89605 11 28 33.58 +14 21 46.4 21.4 R 950 – La Palma MPS 606420
2015 05 10.89763 11 28 33.59 +14 21 46.4 21.0 R 950 – La Palma MPS 606420
2015 05 10.89921 11 28 33.53 +14 21 45.8 21.3 R 950 – La Palma MPS 606420
2018 01 20.45231 09 34 07.690 +35 14 01.57 20.9 w F51 – Pan-STARRS 1, Haleakala MPS 864738
2018 01 20.46355 09 34 06.889 +35 14 06.83 20.8 w F51 – Pan-STARRS 1, Haleakala MPS 864738
2018 01 20.47470 09 34 06.109 +35 14 11.94 21.0 w F51 – Pan-STARRS 1, Haleakala MPS 864738
2018 01 20.48592 09 34 05.308 +35 14 17.02 20.8 w F51 – Pan-STARRS 1, Haleakala MPS 864738
2018 01 23.41542 09 30 41.047 +35 35 43.46 20.6 w F51 – Pan-STARRS 1, Haleakala MPS 864738
2018 01 23.43870 09 30 39.333 +35 35 53.57 20.7 w F51 – Pan-STARRS 1, Haleakala MPS 864738
